CW1509 Weather Reports


Display with metric or nautical units.
time (UTC)temp
F
wind
direction
speed
MPH
gust
MPH
rain 1hr
in
rain 24hr
in
rain mn
in
humidity
%
barometer
mb
20260508033437 45 360 0.0 0.0 0.00 0.05 0.05 89 1011.5
20260508032915 45 360 0.0 0.0 0.00 0.05 0.05 89 1011.4
20260508032415 45 360 0.0 0.0 0.00 0.05 0.05 88 1011.3
20260508031916 45 360 0.0 0.0 0.00 0.05 0.05 88 1011.3
20260508031416 45 360 0.0 0.0 0.00 0.05 0.05 88 1011.3
20260508030918 45 360 0.0 0.0 0.00 0.05 0.05 88 1011.3
20260508030420 45 360 0.0 0.0 0.00 0.05 0.05 88 1011.3
20260508025941 45 360 0.0 0.0 0.00 0.05 0.05 88 1011.3
20260508025420 45 360 0.0 0.0 0.00 0.05 0.05 87 1011.4
20260508024921 45 360 0.0 0.0 0.00 0.05 0.05 87 1011.4
20260508024441 46 360 0.0 0.0 0.00 0.05 0.05 87 1011.5
20260508023942 46 360 0.0 0.0 0.00 0.05 0.05 87 1011.3
20260508023420 46 360 0.0 0.0 0.00 0.05 0.05 87 1011.3
20260508022921 46 360 0.0 0.0 0.00 0.05 0.05 87 1011.4
20260508022429 46 360 0.0 0.0 0.00 0.05 0.05 87 1011.3
20260508021929 46 360 0.0 0.0 0.00 0.05 0.05 86 1011.3
20260508021450 46 360 0.0 0.0 0.00 0.05 0.05 86 1011.2
20260508020929 46 360 0.0 0.0 0.00 0.05 0.05 86 1011.2
20260508020432 46 360 0.0 0.0 0.00 0.05 0.05 86 1011.2
20260508015932 46 360 0.0 0.0 0.00 0.05 0.05 86 1011.1
20260508015414 46 360 0.0 0.0 0.00 0.05 0.05 86 1011.2
20260508014915 47 360 0.0 0.0 0.00 0.05 0.05 85 1011.1
20260508014416 47 360 0.0 0.0 0.00 0.05 0.05 85 1011.2
20260508013917 47 360 0.0 0.0 0.00 0.05 0.05 84 1011.1
20260508013438 47 360 0.0 0.0 0.00 0.05 0.05 83 1011.0
20260508012917 47 360 0.0 0.0 0.01 0.05 0.05 83 1010.9
20260508012417 47 360 0.0 0.0 0.03 0.05 0.05 83 1011.0
20260508011916 48 209 0.0 0.0 0.04 0.05 0.05 82 1011.0
20260508011418 48 360 0.0 0.0 0.05 0.05 0.05 82 1011.1
20260508010917 48 360 0.0 0.0 0.05 0.05 0.05 81 1011.1
20260508010418 48 360 0.0 0.0 0.05 0.05 0.05 81 1011.2
20260508005918 49 360 0.0 2.0 0.05 0.05 0.05 81 1011.1
20260508005419 49 360 0.0 3.0 0.05 0.05 0.05 81 1011.1
20260508004921 49 360 0.0 3.0 0.05 0.05 0.05 81 1011.0
20260508004422 49 160 1.0 3.0 0.05 0.05 0.05 80 1010.9
20260508003924 50 360 0.0 5.0 0.05 0.05 0.05 80 1011.0
20260508003424 50 360 1.0 11.0 0.05 0.05 0.05 79 1011.0
20260508002925 51 360 2.0 11.0 0.03 0.03 0.03 78 1011.1
20260508002425 51 360 4.0 11.0 0.02 0.02 0.02 75 1011.8
20260508001945 52 360 5.0 11.0 0.01 0.01 0.01 73 1011.9
20260508001444 52 360 4.0 8.0 0.00 0.00 0.00 70 1011.8
20260508000925 53 360 2.0 8.0 0.00 0.00 0.00 68 1011.6
20260508000426 54 360 2.0 5.0 0.00 0.00 0.00 66 1011.4
20260507235944 54 360 1.0 5.0 0.00 0.00 0.00 66 1011.4
20260507235425 54 360 0.0 5.0 0.00 0.00 0.00 63 1011.2
20260507234926 54 360 2.0 4.0 0.00 0.00 0.00 58 1011.2
20260507234427 55 360 1.0 5.0 0.00 0.00 0.00 58 1010.9
20260507233928 55 360 1.0 5.0 0.00 0.00 0.00 58 1010.8
20260507233429 55 360 2.0 5.0 0.00 0.00 0.00 57 1010.8
20260507232930 55 360 0.0 4.0 0.00 0.00 0.00 57 1010.7
20260507232430 55 360 3.0 6.0 0.00 0.00 0.00 57 1010.8
20260507231932 55 360 3.0 6.0 0.00 0.00 0.00 56 1010.9
20260507231432 55 360 2.0 12.0 0.00 0.00 0.00 56 1011.0
20260507230933 55 360 3.0 12.0 0.00 0.00 0.00 56 1011.1
20260507230433 55 360 1.0 8.0 0.00 0.00 0.00 56 1011.1
20260507225914 55 360 3.0 13.0 0.00 0.00 0.00 56 1011.1
20260507225414 55 360 4.0 13.0 0.00 0.00 0.00 56 1011.2
20260507224915 55 360 3.0 10.0 0.00 0.00 0.00 55 1011.2
20260507224416 55 360 5.0 10.0 0.00 0.00 0.00 54 1011.2
20260507223944 56 360 4.0 8.0 0.00 0.00 0.00 54 1011.2
20260507223423 56 360 4.0 11.0 0.00 0.00 0.00 53 1011.1
20260507222923 56 360 5.0 11.0 0.00 0.00 0.00 53 1011.1
20260507222423 56 360 4.0 10.0 0.00 0.00 0.00 53 1011.1
20260507221924 56 360 3.0 10.0 0.00 0.00 0.00 55 1011.0
20260507221425 56 360 4.0 5.0 0.00 0.00 0.00 54 1011.0
20260507220924 56 360 2.0 8.0 0.00 0.00 0.00 56 1011.1
20260507220424 56 360 4.0 8.0 0.00 0.00 0.00 55 1011.0
20260507215952 57 360 4.0 9.0 0.00 0.00 0.00 54 1011.0
20260507215433 57 360 3.0 8.0 0.00 0.00 0.00 52 1011.0
20260507214915 57 360 3.0 9.0 0.00 0.00 0.00 51 1010.9
20260507214416 57 360 3.0 10.0 0.00 0.00 0.00 51 1010.8
20260507213917 57 360 4.0 10.0 0.00 0.00 0.00 51 1010.9
20260507213420 56 360 4.0 9.0 0.00 0.00 0.00 51 1010.9
20260507212920 56 360 3.0 9.0 0.00 0.00 0.00 51 1010.9
20260507212448 56 360 5.0 12.0 0.00 0.00 0.00 50 1011.0
20260507211942 56 360 4.0 12.0 0.00 0.00 0.00 48 1011.1
20260507211422 57 360 5.0 10.0 0.00 0.00 0.00 47 1011.0
20260507210942 57 360 5.0 8.0 0.00 0.00 0.00 46 1011.1
20260507210423 57 360 3.0 8.0 0.00 0.00 0.00 44 1011.1
20260507205923 57 360 4.0 11.0 0.00 0.00 0.00 44 1011.1
20260507205423 57 360 5.0 11.0 0.00 0.00 0.00 44 1011.2
20260507204923 57 360 2.0 9.0 0.00 0.00 0.00 45 1011.2
20260507204425 57 360 3.0 9.0 0.00 0.00 0.00 43 1011.3
20260507203926 57 360 3.0 10.0 0.00 0.00 0.00 43 1011.4
20260507203425 58 360 5.0 10.0 0.00 0.00 0.00 41 1011.5
20260507202926 58 360 6.0 10.0 0.00 0.00 0.00 40 1011.5
20260507202446 58 360 4.0 13.0 0.00 0.00 0.00 40 1011.5
20260507201925 59 360 5.0 13.0 0.00 0.00 0.00 40 1011.5
20260507201425 59 360 3.0 6.0 0.00 0.00 0.00 40 1011.6
20260507200925 59 360 3.0 8.0 0.00 0.00 0.00 40 1011.7
20260507200426 58 360 4.0 10.0 0.00 0.00 0.00 39 1011.7
20260507195926 58 360 4.0 10.0 0.00 0.00 0.00 40 1011.8
20260507195426 59 360 2.0 8.0 0.00 0.00 0.00 40 1011.9
20260507194947 59 360 2.0 9.0 0.00 0.00 0.00 39 1011.9
20260507194515 59 360 3.0 8.0 0.00 0.00 0.00 38 1012.0
20260507193924 59 360 3.0 9.0 0.00 0.00 0.00 39 1012.0
20260507193444 59 360 4.0 11.0 0.00 0.00 0.00 37 1012.0
20260507192421 59 360 2.0 8.0 0.00 0.00 0.00 39 1012.3
20260507191921 59 360 3.0 6.0 0.00 0.00 0.00 39 1012.4
20260507191420 59 360 2.0 6.0 0.00 0.00 0.00 39 1012.4
20260507190920 58 360 4.0 8.0 0.00 0.00 0.00 39 1012.5
20260507190420 58 360 2.0 10.0 0.00 0.00 0.00 38 1012.6
20260507185941 58 360 5.0 10.0 0.00 0.00 0.00 39 1012.8
20260507185423 57 360 2.0 4.0 0.00 0.00 0.00 40 1012.8
20260507184924 57 360 2.0 3.0 0.00 0.00 0.00 38 1012.8
20260507184424 57 360 1.0 6.0 0.00 0.00 0.00 40 1012.8
20260507183925 57 360 2.0 6.0 0.00 0.00 0.00 39 1013.0
20260507183425 57 360 1.0 6.0 0.00 0.00 0.00 39 1013.1
20260507182926 57 360 1.0 5.0 0.00 0.00 0.00 40 1013.1
20260507182426 57 360 1.0 8.0 0.00 0.00 0.00 37 1013.2
20260507181926 57 360 4.0 8.0 0.00 0.00 0.00 38 1013.3
20260507181425 57 360 3.0 9.0 0.00 0.00 0.00 40 1013.3
20260507180925 57 360 2.0 9.0 0.00 0.00 0.00 38 1013.3
20260507180422 57 360 2.0 5.0 0.00 0.00 0.00 39 1013.3
20260507175922 57 360 2.0 5.0 0.00 0.00 0.00 38 1013.5
20260507175423 57 360 3.0 5.0 0.00 0.00 0.00 38 1013.6
20260507174926 57 360 3.0 5.0 0.00 0.00 0.00 37 1013.6
20260507174425 57 360 1.0 6.0 0.00 0.00 0.00 38 1013.7
20260507173925 57 360 3.0 9.0 0.00 0.00 0.00 37 1013.9
20260507173427 57 360 3.0 9.0 0.00 0.00 0.00 38 1013.9
20260507172928 57 360 3.0 9.0 0.00 0.00 0.00 40 1014.0
20260507172448 56 360 3.0 10.0 0.00 0.00 0.00 40 1014.2
20260507171927 56 360 1.0 6.0 0.00 0.00 0.00 43 1014.2
20260507171428 56 360 2.0 6.0 0.00 0.00 0.00 43 1014.2
20260507170929 56 360 2.0 5.0 0.00 0.00 0.00 41 1014.4
20260507170428 55 360 1.0 6.0 0.00 0.00 0.00 41 1014.5
20260507165927 55 360 2.0 6.0 0.00 0.00 0.00 38 1014.7
20260507165432 55 360 2.0 5.0 0.00 0.00 0.00 41 1014.7
20260507164932 55 360 2.0 6.0 0.00 0.00 0.00 40 1014.8
20260507164433 54 360 2.0 8.0 0.00 0.00 0.00 43 1014.8
20260507163951 54 360 2.0 5.0 0.00 0.00 0.00 44 1014.9
20260507163432 53 275 1.0 6.0 0.00 0.00 0.00 43 1015.0
20260507162931 54 360 2.0 6.0 0.00 0.00 0.00 42 1015.0
20260507162432 54 360 2.0 9.0 0.00 0.00 0.00 42 1015.1
20260507161933 53 360 3.0 9.0 0.00 0.00 0.00 42 1015.2
20260507161433 53 360 2.0 6.0 0.00 0.00 0.00 44 1015.2
20260507160934 53 360 3.0 5.0 0.00 0.00 0.00 46 1015.2
20260507160434 53 360 3.0 6.0 0.00 0.00 0.00 44 1015.2
20260507155933 52 360 1.0 6.0 0.00 0.00 0.00 46 1015.1
20260507155431 52 360 2.0 6.0 0.00 0.00 0.00 45 1015.1
20260507154953 52 360 3.0 6.0 0.00 0.00 0.00 44 1015.3
20260507154432 52 360 1.0 6.0 0.00 0.00 0.00 46 1015.3
20260507153933 52 360 2.0 8.0 0.00 0.00 0.00 45 1015.4
20260507153433 51 360 2.0 5.0 0.00 0.00 0.00 47 1015.5
20260507152934 51 360 2.0 5.0 0.00 0.00 0.00 45 1015.5
20260507152449 51 360 2.0 5.0 0.00 0.00 0.00 46 1015.6
20260507151948 51 360 2.0 6.0 0.00 0.00 0.00 47 1015.5
20260507151427 51 360 3.0 6.0 0.00 0.00 0.00 48 1015.4
20260507150925 50 360 2.0 5.0 0.00 0.00 0.00 46 1015.3
20260507150425 50 360 2.0 5.0 0.00 0.00 0.00 47 1015.3
20260507145926 50 360 1.0 4.0 0.00 0.00 0.00 48 1015.3
20260507145427 50 360 3.0 8.0 0.00 0.00 0.00 47 1015.1
20260507144927 50 360 1.0 6.0 0.00 0.00 0.00 48 1015.1
20260507144424 50 360 3.0 6.0 0.00 0.00 0.00 48 1015.2
20260507143923 49 360 2.0 6.0 0.00 0.00 0.00 49 1015.2
20260507143424 49 360 2.0 6.0 0.00 0.00 0.00 49 1015.3
20260507142928 49 360 2.0 6.0 0.00 0.00 0.00 50 1015.4
20260507142427 49 360 3.0 5.0 0.00 0.00 0.00 50 1015.4
20260507141927 49 360 2.0 9.0 0.00 0.00 0.00 50 1015.3
20260507141429 49 360 4.0 9.0 0.00 0.00 0.00 50 1015.2
20260507140950 49 360 3.0 6.0 0.00 0.00 0.00 52 1015.2
20260507140429 49 360 1.0 5.0 0.00 0.00 0.00 54 1015.2
20260507135930 49 360 3.0 5.0 0.00 0.00 0.00 53 1015.3
20260507135430 48 360 1.0 6.0 0.00 0.00 0.00 54 1015.2
20260507134932 48 360 3.0 6.0 0.00 0.00 0.00 51 1015.1
20260507134434 48 360 2.0 5.0 0.00 0.00 0.00 52 1015.1
20260507133934 48 360 1.0 5.0 0.00 0.00 0.00 54 1015.1
20260507133431 48 360 2.0 4.0 0.00 0.00 0.00 53 1015.2
20260507132954 48 360 2.0 5.0 0.00 0.00 0.00 53 1015.2
20260507132431 48 360 1.0 5.0 0.00 0.00 0.00 54 1015.2
20260507131933 48 360 2.0 4.0 0.00 0.00 0.00 56 1015.2
20260507131433 47 360 1.0 3.0 0.00 0.00 0.00 56 1015.1
20260507130954 47 360 1.0 3.0 0.00 0.00 0.00 59 1015.2
20260507130431 46 360 1.0 5.0 0.00 0.00 0.00 58 1015.1
20260507125932 46 360 2.0 5.0 0.00 0.00 0.00 61 1015.1
20260507125433 45 360 0.0 4.0 0.00 0.00 0.00 64 1015.0
20260507124931 44 360 0.0 4.0 0.00 0.00 0.00 66 1015.0
20260507124430 44 360 0.0 3.0 0.00 0.00 0.00 69 1015.0
20260507123929 43 360 1.0 4.0 0.00 0.00 0.00 69 1015.0
20260507123429 42 360 1.0 4.0 0.00 0.00 0.00 73 1015.0
20260507122928 41 360 0.0 3.0 0.00 0.00 0.00 76 1015.0
20260507122429 40 360 0.0 3.0 0.00 0.00 0.00 79 1015.0
20260507121929 39 360 0.0 0.0 0.00 0.00 0.00 83 1015.1
20260507121450 38 360 0.0 0.0 0.00 0.00 0.00 85 1015.0
20260507120928 37 360 0.0 0.0 0.00 0.00 0.00 86 1015.1
20260507120430 37 360 0.0 0.0 0.00 0.00 0.00 86 1015.1
20260507115931 36 360 0.0 0.0 0.00 0.00 0.00 86 1015.2
20260507115432 36 360 0.0 0.0 0.00 0.00 0.00 85 1015.1
20260507114931 35 360 0.0 0.0 0.00 0.00 0.00 85 1015.0
20260507114432 35 360 0.0 0.0 0.00 0.00 0.00 84 1015.0
20260507113932 35 360 0.0 0.0 0.00 0.00 0.00 84 1014.9
20260507113432 35 360 0.0 0.0 0.00 0.00 0.00 83 1014.9
20260507112932 35 360 0.0 0.0 0.00 0.00 0.00 82 1015.0
20260507112453 35 360 0.0 0.0 0.00 0.00 0.00 82 1015.0
20260507111952 35 360 0.0 0.0 0.00 0.00 0.00 81 1015.0
20260507111430 35 360 0.0 0.0 0.00 0.00 0.00 80 1014.8
20260507110951 35 360 0.0 0.0 0.00 0.00 0.00 80 1014.8
20260507110430 35 360 0.0 0.0 0.00 0.00 0.00 80 1014.7
20260507105951 35 360 0.0 0.0 0.00 0.00 0.00 79 1014.6
20260507105431 35 360 0.0 0.0 0.00 0.00 0.00 79 1014.6
20260507104929 35 360 0.0 0.0 0.00 0.00 0.00 79 1014.6
20260507104426 35 360 0.0 0.0 0.00 0.00 0.00 79 1014.4
20260507103923 35 360 0.0 0.0 0.00 0.00 0.00 79 1014.4
20260507103423 36 360 0.0 0.0 0.00 0.00 0.00 79 1014.4
20260507102922 36 360 0.0 0.0 0.00 0.00 0.00 79 1014.3
20260507102423 36 360 0.0 0.0 0.00 0.00 0.00 79 1014.3
20260507101922 36 360 0.0 0.0 0.00 0.00 0.00 79 1014.4
20260507100922 36 360 0.0 0.0 0.00 0.00 0.00 79 1014.3
20260507100423 36 360 0.0 0.0 0.00 0.00 0.00 78 1014.3
20260507095922 36 360 0.0 0.0 0.00 0.00 0.00 77 1014.3
20260507095423 37 360 0.0 0.0 0.00 0.00 0.00 77 1014.3
20260507094925 37 360 0.0 0.0 0.00 0.00 0.00 77 1014.3
20260507094426 37 360 0.0 0.0 0.00 0.00 0.00 77 1014.3
20260507093926 37 360 0.0 0.0 0.00 0.00 0.00 77 1014.3
20260507093446 37 360 0.0 0.0 0.00 0.00 0.00 76 1014.3
20260507092925 37 360 0.0 0.0 0.00 0.00 0.00 76 1014.3
20260507092444 37 360 0.0 0.0 0.00 0.00 0.00 75 1014.3
20260507091924 38 360 0.0 0.0 0.00 0.00 0.00 75 1014.3
20260507091424 38 360 0.0 0.0 0.00 0.00 0.00 75 1014.3
20260507090923 38 360 0.0 0.0 0.00 0.00 0.00 75 1014.4
20260507090422 38 360 0.0 0.0 0.00 0.00 0.00 74 1014.5
20260507085921 38 360 0.0 0.0 0.00 0.00 0.00 74 1014.6
20260507085420 39 360 0.0 0.0 0.00 0.00 0.00 73 1014.6
20260507084920 39 360 0.0 0.0 0.00 0.00 0.00 73 1014.7
20260507084422 39 360 0.0 0.0 0.00 0.00 0.00 72 1014.6
20260507083942 39 360 0.0 0.0 0.00 0.00 0.00 72 1014.5
20260507083440 39 360 0.0 0.0 0.00 0.00 0.00 71 1014.5
20260507082920 40 360 0.0 0.0 0.00 0.00 0.00 71 1014.6
20260507082420 40 360 0.0 0.0 0.00 0.00 0.00 71 1014.6
20260507081920 40 360 0.0 0.0 0.00 0.00 0.00 71 1014.5
20260507081419 40 360 0.0 0.0 0.00 0.00 0.00 70 1014.5
20260507080917 41 360 0.0 0.0 0.00 0.00 0.00 70 1014.4
20260507080417 41 360 0.0 0.0 0.00 0.00 0.00 69 1014.5
20260507075917 41 360 0.0 0.0 0.00 0.00 0.00 69 1014.4
20260507075436 41 360 0.0 0.0 0.00 0.00 0.00 69 1014.4
20260507074915 42 360 0.0 0.0 0.00 0.00 0.00 68 1014.4
20260507074416 42 360 0.0 0.0 0.00 0.00 0.00 68 1014.5
20260507073938 42 360 0.0 0.0 0.00 0.00 0.00 68 1014.4
20260507073416 42 360 0.0 0.0 0.00 0.00 0.00 67 1014.3
20260507072916 42 360 0.0 0.0 0.00 0.00 0.00 66 1014.4
20260507072436 42 360 0.0 0.0 0.00 0.00 0.00 66 1014.4
20260507071933 43 360 0.0 0.0 0.00 0.00 0.00 65 1014.4
20260507071452 43 360 0.0 0.0 0.00 0.00 0.00 65 1014.4
20260507070931 43 360 0.0 0.0 0.00 0.00 0.00 65 1014.5
20260507070431 43 360 0.0 0.0 0.00 0.00 0.00 65 1014.6
20260507065949 43 360 0.0 0.0 0.00 0.00 0.00 64 1014.5
20260507065427 43 360 0.0 1.0 0.00 0.00 0.00 63 1014.5
20260507064927 43 360 0.0 1.0 0.00 0.00 0.00 63 1014.5
20260507064427 43 360 0.0 0.0 0.00 0.00 0.00 63 1014.6
20260507063927 44 360 0.0 0.0 0.00 0.00 0.00 62 1014.5
20260507063427 44 360 0.0 0.0 0.00 0.00 0.00 62 1014.6
20260507062926 44 360 0.0 0.0 0.00 0.00 0.00 62 1014.6
20260507062423 44 360 0.0 2.0 0.00 0.00 0.00 61 1014.6
20260507061923 44 360 0.0 1.0 0.00 0.00 0.00 61 1014.7
20260507061425 44 360 0.0 1.0 0.00 0.00 0.00 61 1014.6
20260507060927 44 360 0.0 3.0 0.00 0.00 0.00 60 1014.6
20260507060426 44 360 1.0 3.0 0.00 0.00 0.00 60 1014.6
20260507055923 44 360 0.0 0.0 0.00 0.00 0.00 60 1014.6
20260507055423 44 360 0.0 0.0 0.00 0.00 0.00 60 1014.7
20260507054921 45 360 0.0 0.0 0.00 0.00 0.00 60 1014.7
20260507054439 45 360 0.0 0.0 0.00 0.00 0.00 60 1014.7
20260507053918 45 360 0.0 0.0 0.00 0.00 0.00 59 1014.7
20260507053417 45 360 0.0 1.0 0.00 0.00 0.00 60 1014.7
20260507052918 45 360 0.0 1.0 0.00 0.00 0.00 60 1014.7
20260507052418 45 360 0.0 2.0 0.00 0.00 0.00 60 1014.7
20260507051917 45 360 0.0 2.0 0.00 0.00 0.00 59 1014.7
20260507051416 45 360 0.0 2.0 0.00 0.00 0.00 59 1014.7
20260507050917 46 360 0.0 2.0 0.00 0.00 0.00 59 1014.7
20260507050417 46 360 0.0 0.0 0.00 0.00 0.00 59 1014.7
20260507045933 46 360 0.0 0.0 0.00 0.00 0.00 59 1014.6
20260507045433 46 360 0.0 0.0 0.00 0.00 0.00 59 1014.7
20260507044932 46 360 0.0 2.0 0.00 0.00 0.00 58 1014.6
20260507044431 46 360 0.0 2.0 0.00 0.00 0.00 58 1014.6
20260507043931 46 360 0.0 0.0 0.00 0.00 0.00 58 1014.6
20260507043431 47 360 0.0 0.0 0.00 0.00 0.00 57 1014.5
20260507042931 47 360 0.0 1.0 0.00 0.00 0.00 57 1014.6
20260507042450 47 360 0.0 2.0 0.00 0.00 0.00 56 1014.5
20260507041929 47 360 0.0 4.0 0.00 0.00 0.00 56 1014.5
20260507041428 47 360 1.0 4.0 0.00 0.00 0.00 56 1014.4
20260507040927 47 360 1.0 2.0 0.00 0.00 0.00 56 1014.5
20260507040427 48 360 0.0 2.0 0.00 0.00 0.00 56 1014.5
20260507035927 48 360 0.0 2.0 0.00 0.00 0.00 55 1014.5
20260507035427 48 360 1.0 2.0 0.00 0.00 0.00 55 1014.6
20260507034928 48 360 0.0 2.0 0.00 0.00 0.00 56 1014.6
20260507034429 48 360 0.0 2.0 0.00 0.00 0.00 55 1014.6
20260507033930 49 360 1.0 3.0 0.00 0.00 0.00 54 1014.6